Decorah
Saturday 10:35 PM
Temperature36° (45°/25°)
Dew Point27°
Relative Humidity69
%
Visibility10
mi
Pressure1020.7
mb
Wind Direction
Wind SpeedCalm
Precipitation Today0.01

Last 30 Observations

Time PresWx Temp DP Feels RH% Vsby Pressure Ceiling Direction Speed 1h Precip
10:15 PM 36° 27° 69
%
10
mi
1020.7
mb
Calm 0.00"
9:55 PM 37° 27° 65
%
10
mi
1020.7
mb
Calm 0.00"
9:35 PM 37° 27° 65
%
10
mi
1021.0
mb
Calm 0.00"
9:15 PM 37° 27° 65
%
10
mi
1020.7
mb
Calm 0.00"
8:55 PM 39° 25° 37°56
%
10
mi
1020.7
mb
ENE
60°
3
mph
0.00"
8:35 PM 39° 25° 36°56
%
10
mi
1020.3
mb
ENE
70°
5
mph
0.00"
8:15 PM 39° 25° 37°56
%
10
mi
1020.3
mb
ENE
60°
3
mph
0.00"
7:55 PM 41° 23° 48
%
10
mi
1020.0
mb
Calm 0.00"
7:35 PM 43° 23° 41°45
%
10
mi
1020.3
mb
NE
40°
3
mph
0.00"
7:15 PM 43° 23° 40°45
%
10
mi
1020.3
mb
NNE
20°
5
mph
0.00"
6:55 PM 43° 25° 38°49
%
10
mi
1020.0
mb
NNW
330°
8
mph
0.00"
6:35 PM 45° 25° 41°45
%
10
mi
1020.0
mb
Variable 6
mph
0.00"
6:15 PM 45° 25° 40°45
%
10
mi
1020.0
mb
NNW
340°
8
mph
0.00"
5:55 PM 45° 25° 41°45
%
10
mi
1020.0
mb
Variable 6
mph
0.00"
5:35 PM 45° 25° 41°45
%
10
mi
1020.0
mb
N
10°
7
mph
0.00"
5:15 PM 45° 25° 41°45
%
10
mi
1020.0
mb
Variable 7
mph
0.00"
4:55 PM 43° 23° 40°45
%
10
mi
1020.3
mb
NNE
20°
5
mph
0.00"
4:35 PM 43° 23° 38°45
%
10
mi
1020.3
mb
NNE
20°
8
mph
0.00"
4:15 PM 43° 23° 37°45
%
10
mi
1020.3
mb
N
10°
9
mph
0.00"
3:55 PM 43° 23° 38°45
%
10
mi
1020.7
mb
N
10°
8
mph
0.00"
3:35 PM 43° 27° 37°52
%
10
mi
1020.7
mb
NNE
20°
10
mph
(G17)
0.00"
3:15 PM 43° 25° 37°49
%
10
mi
1021.0
mb
N
10°
9
mph
(G15)
0.00"
2:55 PM 41° 27° 35°56
%
10
mi
1021.3
mb
NNE
20°
9
mph
0.00"
2:35 PM 41° 28° 36°61
%
10
mi
1022.0
mb
NNE
30°
7
mph
0.00"
2:15 PM 41° 28° 36°61
%
10
mi
1022.0
mb
NNE
30°
8
mph
0.00"
1:55 PM 39° 30° 33°70
%
10
mi
1022.4
mb
N
10°
10
mph
0.00"
1:35 PM 39° 32° 33°75
%
10
mi
1022.7
mb
NNW
330°
10
mph
0.00"
1:15 PM 37° 30° 31°75
%
10
mi
1023.0
mb
NNE
30°
8
mph
0.00"
12:55 PM 36° 30° 29°81
%
10
mi
1023.0
mb
N
360°
8
mph
0.00"
12:35 PM 36° 30° 29°81
%
10
mi
1023.0
mb
NNW
340°
9
mph
0.00"